Regional Weather Roundup
Issued by NWS

Home | Current Version | Previous Version | Graphics & Text | Print | Product List | Glossary On
Versions: 1 2 3 4 5 6 7 8 9 10 11 12 13 14 15 16 17 18 19 20 21 22 23 24 25 26 27 28 29 30 31 32 33 34 35 36 37 38 39 40 41 42 43 44 45 46 47 48 49 50
000
ASUS43 KLOT 280008
RWRIL

ILLINOIS REGIONAL WEATHER ROUNDUP
NATIONAL WEATHER SERVICE CHICAGO/ROMEOVILLE IL
600 PM CST MON FEB 27 2017

NOTE: "FAIR" INDICATES FEW OR NO CLOUDS BELOW 12,000 FEET WITH NO
SIGNIFICANT WEATHER AND/OR OBSTRUCTIONS TO VISIBILITY.

* THESE STATIONS ARE NOT UNDER NWS QUALITY CONTROL. THEY ALSO MAY NOT
  REPORT WEATHER SUCH AS PRECIPITATION OR FOG.

ILZ001-002-007-009-015-016-024-280100-
NORTHWEST ILLINOIS

CITY           SKY/WX    TMP DP  RH WIND       PRES   REMARKS
MOLINE         CLOUDY    50  30  46 SE8       29.97F
6HR MIN TEMP:  50; 6HR MAX TEMP:  57;

STERLING*      CLOUDY    48  36  63 SE5       30.02F
$$

ILZ003-004-008-010-011-017-018-280100-
NORTH CENTRAL ILLINOIS

CITY           SKY/WX    TMP DP  RH WIND       PRES   REMARKS
ROCKFORD       CLOUDY    47  33  58 SE7       30.04F
6HR MIN TEMP:  47; 6HR MAX TEMP:  54;

FREEPORT*      CLOUDY    43  33  69 SE5       30.03F
ROCHELLE*      CLOUDY    46  37  71 SE6       30.04S
DE KALB*       CLOUDY    47  34  60 SE5       30.05S
PERU*          CLOUDY    50  32  50 SE7       30.04S
$$

ILZ005-006-012>014-019>023-280100-
NORTHEAST ILLINOIS

CITY           SKY/WX    TMP DP  RH WIND       PRES   REMARKS
CHICAGO-OHARE  CLOUDY    48  34  58 E9        30.06S
6HR MIN TEMP:  47; 6HR MAX TEMP:  54;

CHICAGO-MIDWAY CLOUDY    53  31  42 SE6       30.07S
6HR MIN TEMP:  48; 6HR MAX TEMP:  54;

AURORA         CLOUDY    48  33  56 SE5       30.05R
6HR MIN TEMP:  48; 6HR MAX TEMP:  55;

LANSING*       CLOUDY    50  37  60 SE8       30.08S
JOLIET*        CLOUDY    52  35  51 CALM      30.06S
WAUKEGAN       CLOUDY    40  34  79 SE7       30.06F
6HR MIN TEMP:  39; 6HR MAX TEMP:  46;

DUPAGE AIRPORT PTCLDY    48  31  51 S5        30.05R
6HR MIN TEMP:  47; 6HR MAX TEMP:  54;

KANKAKEE*      CLOUDY    49  36  59 SE6       30.08S
WHEELING       CLOUDY    45  33  63 E7        30.08S
6HR MIN TEMP:  45; 6HR MAX TEMP:  52;

MORRIS*        CLOUDY    49  33  55 SE5       30.04S
ROMEOVILLE*    CLOUDY    49  37  63 SE6       30.06S
NORTHERLY ISL    N/A     39  34  82 E1          N/A
$$

LMZ740>746-280100-
SOUTHERN LAKE MICHIGAN

STATION/POSITION SKY/WX   TEMP    WIND        PRES    VSBY  WAVE
                          AIR SEA DIR/SP/G                  HT/PER
                          (F)     (DEG/KT/KT) (MB)    (MI)  (FT/S)
HARRISON CRIB              41     100/ 17/ 18   N/A
BURNHAM HARBOR             39      CALM  /  8   N/A
CALUMET HARBOR             41      80/  7/ 10 1017.9F
BURNS HARBOR               51     150/  5/  9 1019.6S
MICHIGAN CITY              50     120/  8/ 10   N/A
$$

ILZ025>027-034>036-040-047-049-050-058-095>099-280100-
WEST-CENTRAL ILLINOIS

CITY           SKY/WX    TMP DP  RH WIND       PRES   REMARKS
QUINCY         CLEAR     55  34  45 SE8       29.94F
GALESBURG*     CLOUDY    52  32  46 E3        29.98F
MACOMB*        MOCLDY    53  31  43 SE7       29.99F
JACKSONVILLE*  MOCLDY    55  34  44 SE7       29.98F
PITTSFIELD*    CLOUDY    56  36  46 SE8       29.96F
$$

ILZ028>032-037-038-041>044-048-051>054-059>061-280100-
CENTRAL ILLINOIS

CITY           SKY/WX    TMP DP  RH WIND       PRES   REMARKS
PONTIAC        CLOUDY    50  36  57 SE7       30.05S
BLOOMINGTON    CLOUDY    49  35  58 SE8       30.04F
DECATUR        CLEAR     54  38  54 SE10      30.05S
PEORIA         CLOUDY    55  33  43 SE6       30.01F
6HR MIN TEMP:  53; 6HR MAX TEMP:  59;

LACON*         CLOUDY    52  34  51 SE3       30.01F
LINCOLN*       PTCLDY    53  38  56 SE8       30.02S
SPRINGFIELD    PTCLDY    58  36  43 SE13      30.01F
6HR MIN TEMP:  57; 6HR MAX TEMP:  62;

TAYLORVILLE    PTCLDY    55  39  54 SE9       30.03F
6HR MIN TEMP:  54; 6HR MAX TEMP:  60;

$$

ILZ033-039-045-046-055>057-062-063-280100-
EAST-CENTRAL ILLINOIS

CITY           SKY/WX    TMP DP  RH WIND       PRES   REMARKS
CHAMPAIGN      CLOUDY    53  38  56 S14       30.06S
RANTOUL*       CLOUDY    53  40  61 SE9       30.07S
MATTOON        CLEAR     51  43  74 SE8       30.08R
PARIS*         CLEAR     48  42  79 SE9       30.11R
$$

ILZ079-100>102-280100-
SOUTHWEST ILLINOIS

CITY           SKY/WX    TMP DP  RH WIND       PRES   REMARKS
ALTON          PTCLDY    57  39  51 SE7       30.01S
BELLEVILLE     CLOUDY    59  45  59 E5        30.02R
CAHOKIA*       PTCLDY    61  43  51 SE17      29.98F
SPARTA*        CLOUDY    59  46  62 S10       30.05R
$$

ILZ064>066-069>071-074>076-080>082-084>086-088>090-092>094-280100-
SOUTH-CENTRAL ILLINOIS

CITY           SKY/WX    TMP DP  RH WIND       PRES   REMARKS
CARBONDALE     PTCLDY    59  48  67 S8        30.06R
6HR MIN TEMP:  57; 6HR MAX TEMP:  62;

CAIRO*         CLEAR     60  49  65 S7        30.07S
EFFINGHAM*     CLEAR     52  45  75 E9        30.09S
MT. VERNON     PTCLDY    57  45  64 E3        30.07R
CENTRALIA*     PTCLDY    58  47  67 SE7       30.05S
SALEM*         CLEAR     58  44  60 SE6       30.06R
METROPOLIS*    PTCLDY    61  47  60 CALM      30.08S
$$

ILZ067-068-072-073-078-083-087-091-280100-
SOUTHEAST ILLINOIS

CITY           SKY/WX    TMP DP  RH WIND       PRES   REMARKS
LAWRENCEVILLE  PTCLDY    50  43  77 SE8       30.12R
FLORA*         CLEAR     54  46  73 SE8       30.09R
FAIRFIELD*     PTCLDY    53  45  75 E5        30.08S
HARRISBURG*    CLEAR     57  48  72 SE3       30.08S
ROBINSON*      CLEAR     48  43  81 SE7       30.12S
CARMI*         CLEAR     51  45  78 E6        30.09R
$$

ABBREVIATIONS USED IN REMARKS
   TC - TEMPERATURE IN CELSIUS
  WCI - WIND CHILL INDEX
   HX - HEAT INDEX
  VSB - VISIBILITY
$$





USA.gov is the U.S. government's official web portal to all federal, state and local government web resources and services.